• Join FlightAware (Why Join?)
  • Login
  • US Flag 
04:57PM EDT


 

Airport Tracker/Info


-or-


 

Live Flight TrackerFlight Track Log ✈ SWA3408 ✈ 05-May-2013 ✈ KMDW - KIAD

Flight Track Log - Related Links

Times and Time Zones

All times are in EDT time to prevent confusion due to time zone crossing. See the SWA3408 flight status page for this flight to view local times or setup timezone preferences in your user account.

Time Position Orientation Groundspeed Altitude Reporting Facility
EDT Latitude Longitude Course Direction KTS MPH feet Rate Location/Type
07:39AM 41.8167 -87.7333 90° East 199 229 3,100  Level Chicago TRACON
07:40AM 41.8283 -87.6253 82° East 199 229 4,700 2,280 Climbing Chicago Center
07:41AM 41.8508 -87.5147 75° East 282 325 9,600 4,800 Climbing Chicago Center
07:42AM 41.8317 -87.4189 105° East 271 312 14,500 4,080 Climbing Chicago Center
07:43AM 41.8106 -87.3078 104° East 300 345 18,000 3,480 Climbing Chicago Center
07:44AM 41.7667 -86.3546 90° East  Level FlightAware Approximate
07:44AM 41.7858 -87.1847 105° East 334 384 21,600  Level Chicago Center
07:45AM 41.7611 -87.0492 104° East 367 422 25,000 3,180 Climbing Chicago Center
07:46AM 41.7631 -86.9025 89° East 392 451 28,100 2,880 Climbing Chicago Center
07:47AM 41.7656 -86.7522 89° East 403 464 30,900 3,000 Climbing Chicago Center
07:48AM 41.7664 -86.5853 90° East 413 475 34,300 2,280 Climbing Chicago Center
07:49AM 41.7675 -86.4361 89° East 403 464 35,600 1,860 Climbing Chicago Center
07:50AM 41.7664 -86.2894 91° East 397 457 38,200 2,040 Climbing Chicago Center
07:51AM 41.7581 -86.1453 94° East 390 449 39,800 1,260 Climbing Chicago Center
07:52AM 41.7481 -85.9953 95° East 402 463 40,800 540 Climbing Chicago Center
07:54AM 41.7383 -85.8386 95° East 420 483 41,000 60 Climbing Chicago Center
07:55AM 41.7286 -85.6806 95° East 425 489 41,000  Level Chicago Center
07:56AM 41.7186 -85.5353 95° East 423 487 41,000  Level Chicago Center
07:57AM 41.6692 -85.3636 111° Southeast 413 475 41,000  Level Chicago Center
07:58AM 41.6253 -85.2253 113° Southeast 416 479 41,000  Level Chicago Center
07:59AM 41.5783 -85.0833 114° Southeast 419 482 41,000  Level Chicago Center
08:00AM 41.5311 -84.9444 114° Southeast 412 474 41,000  Level Chicago Center
08:01AM 41.4822 -84.8047 115° Southeast 415 478 41,000  Level Chicago Center
08:02AM 41.4339 -84.6631 114° Southeast 419 482 41,000  Level Chicago Center
08:03AM 41.3781 -84.4992 114° Southeast 412 474 41,000  Level Cleveland Center
08:04AM 41.3381 -84.3889 116° Southeast 412 474 41,000  Level Cleveland Center
08:05AM 41.2867 -84.2367 114° Southeast 412 474 41,000  Level Cleveland Center
08:06AM 41.2367 -84.0983 116° Southeast 412 474 41,000  Level Cleveland Center
08:07AM 41.1886 -83.9606 115° Southeast 412 474 41,000  Level Cleveland Center
08:08AM 41.1364 -83.8200 116° Southeast 412 474 41,000  Level Cleveland Center
08:09AM 41.0844 -83.6631 114° Southeast 417 480 41,000  Level Cleveland Center
08:10AM 41.0339 -83.5258 116° Southeast 412 474 41,000  Level Cleveland Center
08:11AM 40.9853 -83.3861 115° Southeast 412 474 41,000  Level Cleveland Center
08:12AM 40.9367 -83.2467 115° Southeast 412 474 41,000  Level Cleveland Center
08:13AM 40.8872 -83.1264 119° Southeast 417 480 41,000  Level Cleveland Center
08:15AM 40.7617 -82.7758 115° Southeast 420 483 41,000  Level Indianapolis Center
08:16AM 40.7106 -82.6386 116° Southeast 417 480 41,000  Level Indianapolis Center
08:17AM 40.6614 -82.5008 115° Southeast 415 478 41,000  Level Indianapolis Center
08:18AM 40.6097 -82.3664 117° Southeast 412 474 41,000  Level Indianapolis Center
08:19AM 40.5594 -82.2314 116° Southeast 411 473 41,000  Level Indianapolis Center
08:20AM 40.4972 -82.0767 118° Southeast 408 470 41,000  Level Cleveland Center
08:21AM 40.4528 -81.9556 116° Southeast 414 476 41,000  Level Cleveland Center
08:22AM 40.4022 -81.8181 116° Southeast 414 476 41,000  Level Cleveland Center
08:23AM 40.3517 -81.6864 117° Southeast 408 470 41,000  Level Cleveland Center
08:24AM 40.3028 -81.5494 115° Southeast 408 470 41,000  Level Cleveland Center
08:25AM 40.2517 -81.4156 117° Southeast 408 470 41,000  Level Cleveland Center
08:26AM 40.2006 -81.2817 117° Southeast 408 470 41,000  Level Cleveland Center
08:27AM 40.1492 -81.1508 117° Southeast 408 470 41,000  Level Cleveland Center
08:28AM 40.0997 -81.0172 116° Southeast 403 464 41,000  Level Cleveland Center
08:29AM 40.0458 -80.8869 118° Southeast 403 464 41,000  Level Cleveland Center
08:30AM 39.9919 -80.7511 117° Southeast 408 470 41,000  Level Cleveland Center
08:31AM 39.9400 -80.6183 117° Southeast 413 475 41,000  Level Cleveland Center
08:32AM 39.8878 -80.4858 117° Southeast 413 475 41,000  Level Cleveland Center
08:33AM 39.8314 -80.3506 118° Southeast 413 475 41,000  Level Cleveland Center
08:34AM 39.7811 -80.2158 116° Southeast 413 475 41,000 -840 Level Cleveland Center
08:35AM 39.7264 -80.0864 119° Southeast 413 475 39,400 -2,580 Descending Cleveland Center
08:38AM 39.5956 -79.7686 118° Southeast 417 480 32,300 -3,000 Descending Washington Center
08:39AM 39.5439 -79.6336 116° Southeast 417 480 29,300 -2,640 Descending Washington Center
08:40AM 39.4939 -79.5019 116° Southeast 417 480 27,000 -1,200 Descending Washington Center
08:41AM 39.4694 -79.3553 102° East 411 473 27,000 -480 Level Washington Center
08:42AM 39.4408 -79.2061 104° East 416 479 26,100 -540 Descending Washington Center
08:43AM 39.4178 -79.0625 102° East 416 479 26,000 -1,680 Descending Washington Center
08:44AM 39.3883 -78.9242 105° East 410 472 22,800 -3,240 Descending Washington Center
08:45AM 39.3631 -78.7861 103° East 405 466 19,500 -2,040 Descending Washington Center
08:46AM 39.3411 -78.6589 103° East 381 438 18,700 -1,680 Descending Washington Center
08:47AM 39.3192 -78.5372 103° East 360 414 16,200 -2,400 Descending Washington Center
08:48AM 39.2972 -78.4183 103° East 347 399 13,900 -2,400 Descending Washington Center
08:49AM 39.2597 -78.3178 116° Southeast 329 379 11,500 -1,740 Descending Washington Center
08:50AM 39.2139 -78.2303 124° Southeast 309 356 10,500 -1,020 Descending Washington Center
08:51AM 39.1739 -78.1539 124° Southeast 284 327 9,500 -1,080 Descending Washington Center
08:52AM 39.1336 -78.0775 124° Southeast 268 308 8,400 -1,080 Descending Washington Center
08:53AM 39.0894 -77.9958 125° Southeast 263 303 7,400 -1,020 Descending Washington Center
08:54AM 39.0514 -77.9222 124° Southeast 263 303 6,400 -720 Descending Washington Center
08:55AM 39.0131 -77.8464 123° Southeast 255 293 6,000 -240 Descending Washington Center
08:56AM 38.9789 -77.7839 125° Southeast 243 280 6,000  Level Washington Center
08:57AM 38.9500 -77.6167 102° East 255 293 6,000 -240 Level Potomac TRACON
08:58AM 38.8833 -77.5833 159° South 254 292 5,400 -960 Descending Potomac TRACON
08:59AM 38.8167 -77.5667 169° South 257 296 4,200 -1,200 Descending Potomac TRACON
09:00AM 38.7667 -77.5333 153° Southeast 234 269 3,000 -720 Descending Potomac TRACON
09:01AM 38.7833 -77.4833 67° East 190 219 2,800 -360 Descending Potomac TRACON
09:02AM 38.8333 -77.4667 15° North 174 200 2,400 -600 Descending Potomac TRACON
09:03AM 38.8833 -77.4667 360° North 151 174 1,700 -720 Descending Potomac TRACON
09:04AM 38.9167 -77.4667 360° North 119 137 1,000 -720 Descending Potomac TRACON
09:06AM 38.9333 -77.4500 165° South  Level FlightAware Approximate
09:13AM 38.9474 -77.4599 165° South  Level Estimated
09:14AM 38.9474 -77.4599 165° South  Level Estimated